Location: Palmerston North
(40.3500°S, 175.6170°E)
Time: 02:18:38
(UTC+13:00)

ISS - Pass Details

Date: 02 February 2019
Orbit: 403 x 411 km, 51.6° (Epoch: 23 February)

Event Time Altitude Azimuth Distance (km) Brightness Sun altitude
Exits shadow 04:29:29 69° 259° (WSW) 451 -3.8 -19.2°
Maximum altitude 04:29:44 74° 217° (SW) 438 -3.8 -19.2°
Drops below altitude 10° 04:33:06 10° 130° (SE) 1,500 0.3 -18.7°
Sets 04:35:12 0° 128° (SE) 2,366 1.7 -18.4°
